TimePDT,TemperatureF,Dew PointF,Humidity,Sea Level PressureIn,VisibilityMPH,Wind Direction,Wind SpeedMPH,Gust SpeedMPH,PrecipitationIn,Events,Conditions,WindDirDegrees,DateUTC
12:56 AM,86.0,55.0,35,29.56,10.0,NW,5.8,-,N/A,,Clear,310,2013-09-15 07:56:00
1:56 AM,84.9,55.9,37,29.57,10.0,Calm,Calm,-,N/A,,Clear,0,2013-09-15 08:56:00
2:56 AM,82.9,57.0,41,29.58,10.0,Calm,Calm,-,N/A,,Clear,0,2013-09-15 09:56:00
3:56 AM,82.9,57.0,41,29.59,10.0,Calm,Calm,-,N/A,,Clear,0,2013-09-15 10:56:00
4:56 AM,82.9,57.9,42,29.60,10.0,Calm,Calm,-,N/A,,Clear,0,2013-09-15 11:56:00
5:56 AM,80.1,59.0,48,29.62,10.0,NNW,4.6,-,N/A,,Clear,340,2013-09-15 12:56:00
6:56 AM,81.0,60.1,49,29.65,10.0,Calm,Calm,-,N/A,,Clear,0,2013-09-15 13:56:00
7:56 AM,84.9,59.0,41,29.65,10.0,Calm,Calm,-,N/A,,Clear,0,2013-09-15 14:56:00
8:56 AM,88.0,59.0,37,29.67,10.0,Calm,Calm,-,N/A,,Clear,0,2013-09-15 15:56:00
9:56 AM,91.9,55.9,30,29.68,10.0,NE,3.5,-,N/A,,Clear,50,2013-09-15 16:56:00
10:56 AM,95.0,57.0,28,29.68,10.0,NE,5.8,-,N/A,,Clear,40,2013-09-15 17:56:00
11:56 AM,98.1,57.9,26,29.67,10.0,NE,5.8,-,N/A,,Clear,50,2013-09-15 18:56:00
12:56 PM,99.0,55.9,24,29.65,10.0,ESE,4.6,-,N/A,,Clear,120,2013-09-15 19:56:00
1:56 PM,102.9,53.1,19,29.62,10.0,Calm,Calm,-,N/A,,Clear,0,2013-09-15 20:56:00
2:56 PM,106.0,50.0,15,29.60,10.0,ENE,6.9,-,N/A,,Clear,60,2013-09-15 21:56:00
3:56 PM,106.0,50.0,15,29.58,10.0,Variable,3.5,-,N/A,,Clear,0,2013-09-15 22:56:00
4:56 PM,105.1,48.0,15,29.57,10.0,East,5.8,-,N/A,,Clear,90,2013-09-15 23:56:00
5:56 PM,104.0,46.0,14,29.57,10.0,East,5.8,-,N/A,,Clear,80,2013-09-16 00:56:00
6:56 PM,99.0,50.0,19,29.58,10.0,Calm,Calm,-,N/A,,Clear,0,2013-09-16 01:56:00
7:56 PM,95.0,51.1,22,29.59,10.0,WNW,4.6,-,N/A,,Clear,290,2013-09-16 02:56:00
8:56 PM,93.0,48.9,22,29.61,10.0,West,6.9,-,N/A,,Clear,280,2013-09-16 03:56:00
9:56 PM,91.0,48.9,23,29.62,10.0,West,5.8,-,N/A,,Clear,270,2013-09-16 04:56:00
10:56 PM,89.1,51.1,27,29.62,10.0,Calm,Calm,-,N/A,,Clear,0,2013-09-16 05:56:00
11:56 PM,87.1,51.1,29,29.63,10.0,WNW,3.5,-,N/A,,Clear,290,2013-09-16 06:56:00